Location: Mohawk View
(42.7837°N, 73.7885°W)
Time: 01:11:24
(UTC+00:00)

GPS 2-04 Rocket1 - Pass Details

Date: 17 June 2021
Orbit: 415 x 539 km, 35.6° (Epoch: 02 August)

Event Time Altitude Azimuth Distance (km) Brightness Sun altitude
Exits shadow 08:25:14 11° 235° (SW) 1,653 4.6 -8.2°
Maximum altitude 08:28:25 27° 177° (S) 956 3.7 -7.8°
Drops below altitude 10° 08:31:38 10° 118° (ESE) 1,630 5.5 -7.3°
Sets 08:33:58 0° 106° (ESE) 2,481 6.7 -7.0°
